Regional Weather Roundup
Issued by NWS

Home | Current Version | Previous Version | Text Only | Print | Product List | Glossary Off
Versions: 1 2 3 4 5 6 7 8 9 10 11 12 13 14 15 16 17 18 19 20 21 22 23 24 25 26 27 28 29 30 31 32 33 34 35 36 37 38 39 40 41 42 43 44 45 46 47 48 49 50

000
ASUS43 KOAX 250302
RWRNE

WEATHER ROUNDUP FOR NEBRASKA
NATIONAL WEATHER SERVICE OMAHA NE
900 PM CST WED DEC 24 2014

NOTES: SATELLITE DATA IS BEING USED TO AUGMENT CLOUD COVER ABOVE
       12000 FEET.
       "FAIR" INDICATES FEW OR NO CLOUDS BELOW 12,000 FEET WITH NO
       SIGNIFICANT WEATHER AND/OR OBSTRUCTIONS TO VISIBILITY.

  * THESE STATIONS DO NOT REPORT WEATHER SUCH AS RAIN...SNOW OR FOG.

NEZ001>004-019>022-054>056-250400-
NEBRASKA PANHANDLE

CITY           SKY/WX    TMP DP  RH WIND       PRES   REMARKS
SCOTTSBLUFF    CLOUDY    37  27  67 S6        29.49F WCI  32
ALLIANCE       CLOUDY    34  26  72 SW10      29.49F WCI  26
CHADRON        CLOUDY    29  22  75 CALM      29.46F
SIDNEY         MOCLDY    27  20  75 SW6       29.54F WCI  20
$$

NEZ057>060-069>072-079>082-250400-
SOUTHWEST NEBRASKA

CITY           SKY/WX    TMP DP  RH WIND       PRES   REMARKS
NORTH PLATTE   CLOUDY    34  23  64 W3        29.57F
IMPERIAL       MOCLDY    32  23  69 SW8       29.57F WCI  25
MCCOOK         MOCLDY    36  23  59 SW9       29.61F WCI  29
$$

NEZ005>010-023>029-035>040-094-250400-
NORTH CENTRAL NEBRASKA

CITY           SKY/WX    TMP DP  RH WIND       PRES   REMARKS
VALENTINE      CLOUDY    30  25  81 SW3       29.49F
BROKEN BOW     PTCLDY    31  23  72 CALM      29.56F
ORD            PTCLDY    29  22  75 SW5       29.57F WCI  24
$$

NEZ041-046>049-061>064-073>077-083>087-250400-
SOUTH CENTRAL NEBRASKA

CITY           SKY/WX    TMP DP  RH WIND       PRES   REMARKS
GRAND ISLAND   CLEAR     33  22  63 S14       29.63F WCI  23
HASTINGS       CLEAR     32  21  64 S10       29.63F WCI  24
KEARNEY *      PTCLDY    30  21  69 S9        29.62F WCI  22
$$

NEZ011>018-030>034-042>045-250400-
NORTHEAST NEBRASKA

CITY           SKY/WX    TMP DP  RH WIND       PRES   REMARKS
NORFOLK        PTCLDY    23  21  92 SE6       29.61F WCI  16
COLUMBUS *     CLEAR     28  21  74 S5        29.66F WCI  23
TEKAMAH        PTCLDY    30  27  88 S9        29.70F WCI  22
$$

NEZ050>053-065>068-078-088>093-250400-
SOUTHEAST NEBRASKA

CITY           SKY/WX    TMP DP  RH WIND       PRES   REMARKS
LINCOLN        PTCLDY    26  24  92 SE6       29.71F WCI  19
OMAHA EPPLEY   PTCLDY    29  26  89 S10       29.73F WCI  20
FALLS CITY     CLEAR     30  26  85 S7        29.77F WCI  23
$$

NEZ044-045-051>053-067-250400-
OMAHA AREA

CITY           SKY/WX    TMP DP  RH WIND       PRES   REMARKS
OMAHA EPPLEY   PTCLDY    29  26  89 S10       29.73F WCI  20
OFFUTT AFB     PTCLDY    29  27  90 S8        29.72F WCI  21
$$


USA.gov is the U.S. government's official web portal to all federal, state and local government web resources and services.